NUCOR Weather Reports


time (UTC)temp
C
wind
direction
speed
KPH
gust
KPH
rain 1hr
cm
rain 24hr
cm
rain mn
cm
humidity
%
barometer
mb
20260504151002 21 242 4.8 24.1 0.00 0.00 0.00 57 1026.8
20260504150500 21 244 9.7 24.1 0.00 0.00 0.00 55 1026.5
20260504140936 18 235 6.4 20.9 0.00 0.00 0.00 59 1026.9
20260504140435 18 244 6.4 20.9 0.00 0.00 0.00 61 1026.9
20260504130343 16 222 8.0 17.7 0.00 0.00 0.00 61 1027.0
20260504120253 14 216 3.2 17.7 0.00 0.00 0.00 65 1026.6
20260504110222 12 197 0.0 17.7 0.00 0.00 0.00 66 1026.2
20260504081003 13 192 1.6 17.7 0.00 0.00 0.00 64 1025.9
20260504080502 13 193 0.0 17.7 0.00 0.00 0.00 64 1026.0
20260504050304 13 200 0.0 17.7 0.00 0.00 0.00 62 1027.6
20260504045803 13 200 0.0 17.7 0.00 0.00 0.00 62 1027.5
20260504045304 13 200 0.0 17.7 0.00 0.00 0.00 62 1027.7
20260504044801 13 198 0.0 17.7 0.00 0.00 0.00 62 1027.4
20260504044300 13 200 1.6 17.7 0.00 0.00 0.00 61 1027.6
20260504043759 13 198 0.0 17.7 0.00 0.00 0.00 62 1027.4
20260504043258 13 198 0.0 17.7 0.00 0.00 0.00 61 1027.5
20260504042757 13 205 0.0 17.7 0.00 0.00 0.00 60 1027.5
20260504042256 13 205 0.0 17.7 0.00 0.00 0.00 60 1027.3
20260504041752 13 212 1.6 17.7 0.00 0.00 0.00 60 1027.5
20260504041251 13 212 0.0 17.7 0.00 0.00 0.00 61 1027.5
20260504040750 13 203 1.6 17.7 0.00 0.00 0.00 62 1027.3
20260504040249 13 195 0.0 17.7 0.00 0.00 0.00 62 1027.3
20260504035748 13 199 0.0 17.7 0.00 0.00 0.00 62 1027.5
20260504034731 13 200 1.6 17.7 0.00 0.00 0.00 62 1027.3
20260504033158 13 204 0.0 17.7 0.00 0.00 0.00 59 1027.9
20260504032657 14 207 1.6 17.7 0.00 0.00 0.00 59 1027.8
20260504032156 14 203 1.6 17.7 0.00 0.00 0.00 58 1028.1
20260504031655 14 195 0.0 17.7 0.00 0.00 0.00 57 1028.1
20260504031154 14 195 0.0 17.7 0.00 0.00 0.00 57 1028.1
20260504030653 14 209 0.0 17.7 0.00 0.00 0.00 56 1028.0
20260504030152 15 212 0.0 17.7 0.00 0.00 0.00 56 1028.2
20260504025651 15 207 0.0 17.7 0.00 0.00 0.00 56 1028.3
20260504025150 15 208 0.0 17.7 0.00 0.00 0.00 56 1028.1
20260504024126 15 207 1.6 17.7 0.00 0.00 0.00 57 1028.2
20260504023109 15 220 3.2 17.7 0.00 0.00 0.00 56 1028.2
20260504022608 15 224 1.6 17.7 0.00 0.00 0.00 55 1028.3
20260504021551 15 228 3.2 17.7 0.00 0.00 0.00 56 1028.2
20260504021050 15 235 1.6 17.7 0.00 0.00 0.00 56 1027.8
20260504020549 15 234 3.2 17.7 0.00 0.00 0.00 55 1027.7
20260504020048 15 245 1.6 17.7 0.00 0.00 0.00 54 1027.9
20260504015543 16 245 0.0 17.7 0.00 0.00 0.00 53 1028.0
20260504015042 16 235 1.6 17.7 0.00 0.00 0.00 53 1027.7
20260504014541 16 218 1.6 17.7 0.00 0.00 0.00 52 1027.6
20260504013009 16 224 1.6 17.7 0.00 0.00 0.00 51 1027.3
20260504011432 16 206 1.6 17.7 0.00 0.00 0.00 51 1027.3
20260504010931 16 214 1.6 17.7 0.00 0.00 0.00 50 1027.3
20260504010431 16 209 1.6 17.7 0.00 0.00 0.00 50 1027.1
20260504005930 17 207 0.0 17.7 0.00 0.00 0.00 49 1027.0
20260504004913 17 208 1.6 17.7 0.00 0.00 0.00 47 1027.3
20260504004412 17 211 1.6 17.7 0.00 0.00 0.00 47 1027.1
20260504003911 17 212 1.6 17.7 0.00 0.00 0.00 46 1027.1
20260504003407 18 211 1.6 17.7 0.00 0.00 0.00 45 1027.3
20260504002350 18 242 1.6 17.7 0.00 0.00 0.00 44 1027.4
20260504001849 18 240 3.2 17.7 0.00 0.00 0.00 43 1027.4
20260504001348 18 245 3.2 17.7 0.00 0.00 0.00 42 1027.3
20260504000847 19 248 1.6 17.7 0.00 0.00 0.00 42 1027.3
20260504000346 19 251 1.6 17.7 0.00 0.00 0.00 41 1027.0
20260503235845 20 257 1.6 17.7 0.00 0.00 0.00 40 1027.6
20260503235344 20 282 1.6 17.7 0.00 0.00 0.00 39 1027.6
20260503234843 20 263 1.6 17.7 0.00 0.00 0.00 39 1027.5
20260503234343 20 289 0.0 17.7 0.00 0.00 0.00 39 1027.7
20260503233841 20 294 3.2 17.7 0.00 0.00 0.00 40 1027.7
20260503233340 20 272 1.6 17.7 0.00 0.00 0.00 39 1027.7
20260503232839 20 293 1.6 17.7 0.00 0.00 0.00 39 1027.9
20260503232338 20 252 1.6 17.7 0.00 0.00 0.00 40 1027.9
20260503230805 20 285 0.0 17.7 0.00 0.00 0.00 38 1028.0
20260503230300 20 259 6.4 17.7 0.00 0.00 0.00 38 1028.1
20260503225759 20 294 1.6 17.7 0.00 0.00 0.00 38 1027.9
20260503225258 21 273 6.4 17.7 0.00 0.00 0.00 37 1027.7
20260503224757 21 270 1.6 17.7 0.00 0.00 0.00 38 1028.1
20260503224257 21 282 3.2 17.7 0.00 0.00 0.00 37 1028.2
20260503223239 21 235 6.4 17.7 0.00 0.00 0.00 37 1028.2
20260503222738 21 224 3.2 17.7 0.00 0.00 0.00 37 1028.1
20260503222238 20 265 3.2 17.7 0.00 0.00 0.00 37 1028.4
20260503221736 20 244 4.8 17.7 0.00 0.00 0.00 38 1028.2
20260503220720 20 315 6.4 17.7 0.00 0.00 0.00 36 1028.3
20260503220218 21 283 4.8 17.7 0.00 0.00 0.00 35 1028.3
20260503215717 21 240 4.8 17.7 0.00 0.00 0.00 35 1028.3
20260503214657 20 321 8.0 17.7 0.00 0.00 0.00 35 1028.4
20260503214157 20 314 6.4 17.7 0.00 0.00 0.00 36 1028.6
20260503212624 20 352 6.4 17.7 0.00 0.00 0.00 36 1028.8
20260503212123 20 338 6.4 17.7 0.00 0.00 0.00 35 1028.7
20260503211622 20 300 4.8 17.7 0.00 0.00 0.00 34 1028.4
20260503211122 20 290 6.4 17.7 0.00 0.00 0.00 33 1028.9
20260503210621 20 280 4.8 17.7 0.00 0.00 0.00 34 1029.1
20260503210120 20 236 3.2 17.7 0.00 0.00 0.00 35 1029.1
20260503205619 20 273 6.4 20.9 0.00 0.00 0.00 33 1028.9
20260503205118 20 322 6.4 20.9 0.00 0.00 0.00 33 1029.1
20260503202513 20 266 6.4 17.7 0.00 0.00 0.00 37 1029.3
20260503202012 20 313 4.8 17.7 0.00 0.00 0.00 37 1029.5
20260503201510 20 300 3.2 17.7 0.00 0.00 0.00 37 1029.6
20260503201010 20 257 8.0 17.7 0.00 0.00 0.00 37 1029.7
20260503200509 20 298 8.0 19.3 0.00 0.00 0.00 37 1030.2
20260503195449 19 283 6.4 19.3 0.00 0.00 0.00 37 1030.1
20260503194948 19 314 1.6 19.3 0.00 0.00 0.00 37 1030.2
20260503194447 19 308 4.8 19.3 0.00 0.00 0.00 40 1030.5
20260503193946 18 318 6.4 19.3 0.00 0.00 0.00 41 1030.5
20260503192938 18 338 12.9 20.9 0.00 0.00 0.00 39 1030.4
20260503191918 18 252 6.4 17.7 0.00 0.00 0.00 39 1030.8
20260503190901 18 311 6.4 17.7 0.00 0.00 0.00 38 1030.9
20260503190357 18 255 4.8 17.7 0.00 0.00 0.00 39 1031.4
20260503185856 18 332 3.2 17.7 0.00 0.00 0.00 41 1031.1
20260503185355 18 334 3.2 17.7 0.00 0.00 0.00 43 1030.9
20260503184854 18 295 3.2 17.7 0.00 0.00 0.00 43 1030.8
20260503184353 17 307 6.4 17.7 0.00 0.00 0.00 45 1030.9
20260503183849 17 342 4.8 19.3 0.00 0.00 0.00 44 1031.0
20260503183348 17 327 9.7 19.3 0.00 0.00 0.00 44 1031.1
20260503182847 17 272 3.2 17.7 0.00 0.00 0.00 44 1031.2
20260503182346 17 293 3.2 17.7 0.00 0.00 0.00 42 1031.2
20260503181845 17 282 3.2 17.7 0.00 0.00 0.00 43 1031.4
20260503181344 17 290 4.8 20.9 0.00 0.00 0.00 43 1031.5
20260503180327 17 126 3.2 20.9 0.00 0.00 0.00 46 1031.5
20260503175822 17 270 3.2 20.9 0.00 0.00 0.00 46 1031.4
20260503175317 17 300 3.2 20.9 0.00 0.00 0.00 47 1031.4
20260503174816 17 338 3.2 20.9 0.00 0.00 0.00 46 1031.7
20260503174315 17 233 4.8 20.9 0.00 0.00 0.00 48 1031.7
20260503173814 16 0 1.6 20.9 0.00 0.00 0.00 46 1032.0
20260503172758 16 207 0.0 20.9 0.00 0.00 0.00 48 1032.0
20260503172257 16 297 1.6 20.9 0.00 0.00 0.00 48 1031.9
20260503171756 16 317 1.6 20.9 0.00 0.00 0.00 49 1032.3
20260503171255 16 233 1.6 20.9 0.00 0.00 0.00 48 1032.3
20260503170754 16 248 6.4 20.9 0.00 0.00 0.00 50 1032.2
20260503170253 16 79 0.0 20.9 0.00 0.00 0.00 49 1032.3